Regional Weather Roundup
Issued by NWS Charleston, SC

Current Version | Previous Version | Text Only | Print | Product List | Glossary Off
Versions: 1 2 3 4 5 6 7 8 9 10 11 12 13 14 15 16 17 18 19 20 21 22 23 24 25 26 27 28 29 30 31 32 33 34 35 36 37 38 39 40 41 42 43 44 45 46 47 48 49 50

000
ASUS42 KCHS 302012
RWRCHS

REGIONAL WEATHER ROUNDUP
NATIONAL WEATHER SERVICE CHARLESTON SC
400 PM EDT SUN APR 30 2017

NOTE: "FAIR" INDICATES FEW OR NO CLOUDS BELOW 12,000 FEET WITH NO
SIGNIFICANT WEATHER AND/OR OBSTRUCTIONS TO VISIBILITY.

NOT ALL STATIONS ARE QUALITY CONTROLLED. USE DATA WITH CAUTION...
ESPECIALLY DEWPOINT OBSERVATIONS.

SCZ027-030-031-034>040-042>050-302100-
...SOUTHEAST SOUTH CAROLINA...

CITY           SKY/WX    TMP DP  RH WIND       PRES   REMARKS
N CHARLESTON   MOSUNNY   82  67  60 S21       30.16F
WATERFRONT PRK   N/A     78  71  79 S15G22    30.15F
JOHNS ISLAND   CLOUDY    81  72  74 S16       30.17F
PINOPOLIS        N/A     82  68  61 S8G17     30.08F
MONCKS CORNER  CLOUDY    81  66  61 S9G17     30.15F
SUMMERVILLE    FAIR      82  66  57 S10G17    30.16F
BEAUFORT MCAS  MOSUNNY   81  72  74 SE12G22   30.15F
BEAUFORT ARPT  CLOUDY    79  70  73 S7        30.15F HAZE
HILTON HEAD IS MOSUNNY   81  73  78 SE9       30.16F
WALTERBORO     CLOUDY    84  68  58 S14G21    30.15F
ALLENDALE      FAIR      88  66  48 S14G25    30.10F HX  90

...SOUTHERN MIDLANDS AND PEE DEE...

CITY           SKY/WX    TMP DP  RH WIND       PRES   REMARKS
GEORGETOWN     FAIR      82  66  57 S16G22    30.18F
KINGSTREE      FAIR      86  61  42 SE14G21   30.14F
ORANGEBURG     MOSUNNY   86  67  52 S15G26    30.11F
BARNWELL       FAIR      88  70  55 S9G20     30.11F HX  92
AIKEN          FAIR      84  66  54 SE13      30.12F
MANNING        FAIR      82  64  54 S24       30.13F
COLUMBIA       PTSUNNY   85  69  58 S17       30.09F
SUMTER         MOSUNNY   84  67  55 S10       30.10F
FLORENCE       PTSUNNY   87  65  47 S17G23    30.13F
MYRTLE BEACH   MOSUNNY   81  72  74 S16       30.18F
N MYRTLE BEACH SUNNY     79  71  76 S12       30.18F

$$

GAZ063-065-086>088-099>101-113>116-118-119-134>141-150-302100-
...SOUTHEAST GEORGIA...

CITY           SKY/WX    TMP DP  RH WIND       PRES   REMARKS
SAVANNAH ARPT  MOSUNNY   87  63  44 S18G29    30.13F
HUNTER AAF     SUNNY     83  73  69 S9        30.12F
FORT STEWART   MOSUNNY   85  67  55 SE12G18   30.09F
STATESBORO     MOSUNNY   87  64  45 SE9G17    30.09F
SYLVANIA       PTCLDY   N/A N/A N/A S8G16     30.11F
CLAXTON        FAIR      85  70  59 E10G17    30.09F HX  90

...CSRA...CENTRAL AND FAR SOUTHEAST GEORGIA...

CITY           SKY/WX    TMP DP  RH WIND       PRES   REMARKS
THOMSON        PTSUNNY   84  66  53 W6        30.12F
AUGUSTA-BUSH   PTSUNNY   85  74  69 S6        30.06F HX  92
AUGUSTA-DANIEL MOSUNNY   87  66  49 SE10      30.08F
SWAINSBORO     FAIR      88  64  45 SE10      30.09F
VIDALIA        MOSUNNY   90  64  43 S10       30.08F HX  91
EASTMAN        MOCLDY    89  47  23 S8        30.08F
HAZLEHURST     FAIR      91  64  41 S8        30.06F HX  92
ALMA           MOSUNNY   90  63  40 S7G18     30.07F HX  91
WAYCROSS       MOSUNNY   92  67  44 S10       30.07F HX  95
JESUP          MOCLDY    86  64  48 SE9G17    30.10F
BAXLEY         FAIR      90  68  48 S7G16     30.07F HX  93
BRUNSWICK      MOSUNNY   84  72  65 SE17      30.13F
SAINT SIMONS   SUNNY     82  70  66 SE16G26   30.13S

$$

SCZ027-028-034-036>038-045-046-048>050-GAZ119-141-302100-
...LAKE AND SUPPLEMENTAL COASTAL OBSERVATIONS...

STATION/POSITION TIME  TEMP    WIND        PRES    WAVE   SWELL
                       AIR SEA DIR/SP/G            HT/PER HT/PER/DIR
                 (UTC) (F)     (DEG/KT/KT) (MB)    (FT/S) (FT/S/D)
WINYAH BAY       1845   79     170/ 13     1022.0
LAKE MURRAY      1920   81     180/  6/  8 1019.0
ACE BASIN NERRS  NOT AVBL
FORT PULASKI     1948   81 77  170/ 10/ 15 1021.3F
SAPELO ISLAND    1900   82     160/ 15     1021.0

$$

ANZ835-935-AMZ111-154-330-350-352-354-370-450-454-472-302100-
...C-MAN AND BUOY OBSERVATIONS...

STATION/POSITION TIME  TEMP    WIND        PRES    WAVE   SWELL
                       AIR SEA DIR/SP/G            HT/PER HT/PER/DIR
                 (UTC) (F)     (DEG/KT/KT) (MB)    (FT/S) (FT/S/D)
BUOY 41004       1950   77 76  170/ 14/ 16 1021.5F   4/ 6   2/180/11
BUOY 41008       1850   76 74  150/ 10/ 12 1020.4    4/ 6   3/120/ 6
FOLLY BEACH CMAN 1900   77     160/ 13/ 14 1022.7F
CAPERS NEARSHORE 1908   79 75  180/ 14/ 17 1021.9F
FRIPP NEARSHORE  1908   76 76  160/  6/ 10 1021.6S


STATION/POSITION TIME  TEMP    WIND        PRES    WAVE   SWELL
                       AIR SEA DIR/SP/G            HT/PER HT/PER/DIR
                 (UTC) (F)     (DEG/KT/KT) (MB)    (FT/S) (FT/S/D)
5E ST. MARYS GA  1930      76                N/A     4/ 6
FRYING PAN BUOY  1950   76 75  190/ 12/ 16 1022.1F   4/ 6   2/110/ 9
BUOY 41025       1950   77 75  220/ 16/ 19 1022.5F   3/ 4   2/170/ 7
CAPE LOOKOUT NC  1900   78     220/  9/ 13 1022.5F
BUOY 41002       1950   74 76  160/  8/ 10 1024.2F   3/ 6   3/150/ 6
BUOY 41010       1950   77 77  130/ 14/ 16 1021.4F   6/ 6   3/160/15
ST AUGUSTINE FL  2000   76 79  140/ 20/ 22 1020.2F


$$




USA.gov is the U.S. government's official web portal to all federal, state and local government web resources and services.